Stündliche Wetter Barlogi

Heute, 22 Oktober, Donnerstag

Zeit Temperatur Niederschläge Wind Luftdruck Luftfeuchtigkeit
00:00 +8°C° 0 mm 4 m/S 747 mmHg 77%
01:00 +8°C° 0 mm 4 m/S 747 mmHg 78%
02:00 +8°C° 0 mm 5 m/S 747 mmHg 78%
03:00 +8°C° 0 mm 5 m/S 747 mmHg 78%
04:00 +8°C° 0 mm 5 m/S 747 mmHg 78%
05:00 +8°C° 0 mm 5 m/S 747 mmHg 77%
06:00 +8°C° 0 mm 5 m/S 747 mmHg 77%
07:00 +9°C° 0 mm 6 m/S 747 mmHg 77%
08:00 +10°C° 0 mm 6 m/S 748 mmHg 73%
09:00 +13°C° 0 mm 6 m/S 748 mmHg 69%
10:00 +14°C° 0 mm 6 m/S 748 mmHg 64%
11:00 +15°C° 0 mm 5 m/S 748 mmHg 62%
12:00 +16°C° 0 mm 5 m/S 748 mmHg 61%
13:00 +17°C° 0 mm 5 m/S 748 mmHg 59%
14:00 +18°C° 0 mm 4 m/S 748 mmHg 63%
15:00 +17°C° 0 mm 4 m/S 748 mmHg 68%
16:00 +16°C° 0 mm 3 m/S 748 mmHg 72%
17:00 +14°C° 0 mm 3 m/S 748 mmHg 74%
18:00 +14°C° 0 mm 4 m/S 748 mmHg 76%
19:00 +13°C° 0 mm 4 m/S 748 mmHg 79%
20:00 +13°C° 0 mm 4 m/S 748 mmHg 79%
21:00 +13°C° 0 mm 3 m/S 748 mmHg 80%
22:00 +12°C° 0 mm 3 m/S 748 mmHg 80%
23:00 +12°C° 0 mm 3 m/S 748 mmHg 81%

Morgen, 23 Oktober, Freitag

Zeit Temperatur Niederschläge Wind Luftdruck Luftfeuchtigkeit
00:00 +12°C° 0 mm 3 m/S 748 mmHg 82%
01:00 +11°C° 0 mm 3 m/S 748 mmHg 82%
02:00 +11°C° 0 mm 3 m/S 748 mmHg 82%
03:00 +11°C° 0 mm 3 m/S 748 mmHg 83%
04:00 +11°C° 0 mm 3 m/S 747 mmHg 83%
05:00 +11°C° 0 mm 4 m/S 747 mmHg 83%
06:00 +11°C° 0 mm 4 m/S 747 mmHg 83%
07:00 +11°C° 0 mm 4 m/S 747 mmHg 84%
08:00 +12°C° 0 mm 4 m/S 747 mmHg 80%
09:00 +13°C° 0 mm 5 m/S 746 mmHg 76%
10:00 +14°C° 0 mm 5 m/S 746 mmHg 72%
11:00 +15°C° 0 mm 4 m/S 746 mmHg 70%
12:00 +17°C° 0 mm 4 m/S 746 mmHg 68%
13:00 +18°C° 0 mm 3 m/S 746 mmHg 66%
14:00 +17°C° 0 mm 3 m/S 746 mmHg 69%
15:00 +16°C° 0 mm 2 m/S 745 mmHg 73%
16:00 +15°C° 0 mm 2 m/S 745 mmHg 76%
17:00 +15°C° 0 mm 2 m/S 745 mmHg 79%
18:00 +14°C° 0 mm 2 m/S 745 mmHg 82%
19:00 +13°C° 0 mm 2 m/S 745 mmHg 85%
20:00 +13°C° 0 mm 2 m/S 745 mmHg 85%
21:00 +13°C° 0 mm 2 m/S 745 mmHg 86%
22:00 +13°C° 0 mm 2 m/S 745 mmHg 86%
23:00 +13°C° 0 mm 2 m/S 745 mmHg 85%

übermorgen, 24 Oktober, Samstag

Zeit Temperatur Niederschläge Wind Luftdruck Luftfeuchtigkeit
00:00 +13°C° 0 mm 2 m/S 745 mmHg 84%
01:00 +13°C° 0 mm 2 m/S 745 mmHg 83%
02:00 +13°C° 0 mm 2 m/S 745 mmHg 83%
03:00 +12°C° 0 mm 3 m/S 744 mmHg 83%
04:00 +12°C° 0 mm 3 m/S 744 mmHg 83%
05:00 +12°C° 0.1 mm 3 m/S 744 mmHg 83%
06:00 +12°C° 0.1 mm 3 m/S 744 mmHg 83%
07:00 +12°C° 0.1 mm 3 m/S 744 mmHg 84%
08:00 +12°C° 0.3 mm 4 m/S 744 mmHg 85%
09:00 +12°C° 0.3 mm 4 m/S 744 mmHg 87%
10:00 +12°C° 0.3 mm 5 m/S 744 mmHg 88%
11:00 +13°C° 0 mm 5 m/S 745 mmHg 82%
12:00 +14°C° 0 mm 6 m/S 745 mmHg 75%
13:00 +15°C° 0 mm 6 m/S 745 mmHg 69%
14:00 +15°C° 0 mm 5 m/S 746 mmHg 72%
15:00 +14°C° 0 mm 4 m/S 746 mmHg 76%
16:00 +13°C° 0 mm 3 m/S 746 mmHg 80%
17:00 +13°C° 0 mm 3 m/S 747 mmHg 83%
18:00 +12°C° 0 mm 3 m/S 748 mmHg 87%
19:00 +11°C° 0 mm 4 m/S 748 mmHg 91%
20:00 +11°C° 0 mm 3 m/S 748 mmHg 92%
21:00 +11°C° 0 mm 3 m/S 749 mmHg 93%
22:00 +10°C° 0 mm 3 m/S 749 mmHg 94%
23:00 +10°C° 0 mm 3 m/S 749 mmHg 94%

, 25 Oktober, Sonntag

Zeit Temperatur Niederschläge Wind Luftdruck Luftfeuchtigkeit
00:00 +9°C° 0 mm 3 m/S 749 mmHg 94%
01:00 +9°C° 0 mm 2 m/S 749 mmHg 95%
02:00 +9°C° 0 mm 2 m/S 749 mmHg 94%
03:00 +9°C° 0 mm 2 m/S 750 mmHg 93%
04:00 +8°C° 0 mm 2 m/S 750 mmHg 93%
05:00 +8°C° 0 mm 2 m/S 750 mmHg 93%
06:00 +8°C° 0 mm 2 m/S 750 mmHg 93%
07:00 +8°C° 0 mm 2 m/S 750 mmHg 94%
08:00 +10°C° 0 mm 2 m/S 750 mmHg 87%
09:00 +13°C° 0 mm 2 m/S 750 mmHg 80%
10:00 +14°C° 0 mm 2 m/S 750 mmHg 73%
11:00 +15°C° 0 mm 2 m/S 750 mmHg 69%
12:00 +16°C° 0 mm 2 m/S 750 mmHg 65%
13:00 +16°C° 0 mm 2 m/S 750 mmHg 61%
14:00 +15°C° 0 mm 2 m/S 749 mmHg 65%
15:00 +15°C° 0 mm 2 m/S 749 mmHg 69%
16:00 +14°C° 0 mm 2 m/S 749 mmHg 74%
17:00 +13°C° 0 mm 2 m/S 749 mmHg 76%
18:00 +11°C° 0 mm 3 m/S 749 mmHg 79%
19:00 +11°C° 0 mm 3 m/S 749 mmHg 82%
20:00 +10°C° 0 mm 3 m/S 749 mmHg 83%
21:00 +10°C° 0 mm 3 m/S 749 mmHg 84%
22:00 +10°C° 0 mm 3 m/S 749 mmHg 85%
23:00 +9°C° 0 mm 3 m/S 749 mmHg 87%

25 Oktober, Sonntag

Zeit Temperatur Niederschläge Wind Luftdruck Luftfeuchtigkeit
00:00 +9°C° 0 mm 3 m/S 749 mmHg 94%
01:00 +9°C° 0 mm 2 m/S 749 mmHg 95%
02:00 +9°C° 0 mm 2 m/S 749 mmHg 94%
03:00 +9°C° 0 mm 2 m/S 750 mmHg 93%
04:00 +8°C° 0 mm 2 m/S 750 mmHg 93%
05:00 +8°C° 0 mm 2 m/S 750 mmHg 93%
06:00 +8°C° 0 mm 2 m/S 750 mmHg 93%
07:00 +8°C° 0 mm 2 m/S 750 mmHg 94%
08:00 +10°C° 0 mm 2 m/S 750 mmHg 87%
09:00 +13°C° 0 mm 2 m/S 750 mmHg 80%
10:00 +14°C° 0 mm 2 m/S 750 mmHg 73%
11:00 +15°C° 0 mm 2 m/S 750 mmHg 69%
12:00 +16°C° 0 mm 2 m/S 750 mmHg 65%
13:00 +16°C° 0 mm 2 m/S 750 mmHg 61%
14:00 +15°C° 0 mm 2 m/S 749 mmHg 65%
15:00 +15°C° 0 mm 2 m/S 749 mmHg 69%
16:00 +14°C° 0 mm 2 m/S 749 mmHg 74%
17:00 +13°C° 0 mm 2 m/S 749 mmHg 76%
18:00 +11°C° 0 mm 3 m/S 749 mmHg 79%
19:00 +11°C° 0 mm 3 m/S 749 mmHg 82%
20:00 +10°C° 0 mm 3 m/S 749 mmHg 83%
21:00 +10°C° 0 mm 3 m/S 749 mmHg 84%
22:00 +10°C° 0 mm 3 m/S 749 mmHg 85%
23:00 +9°C° 0 mm 3 m/S 749 mmHg 87%

26 Oktober, Montag

Zeit Temperatur Niederschläge Wind Luftdruck Luftfeuchtigkeit
00:00 +8°C° 0 mm 4 m/S 749 mmHg 88%
01:00 +8°C° 0 mm 4 m/S 748 mmHg 89%
02:00 +8°C° 0 mm 4 m/S 748 mmHg 90%
03:00 +8°C° 0 mm 4 m/S 748 mmHg 91%
04:00 +7°C° 0 mm 4 m/S 748 mmHg 91%
05:00 +7°C° 0 mm 4 m/S 747 mmHg 92%
06:00 +7°C° 0 mm 5 m/S 747 mmHg 92%
07:00 +7°C° 0 mm 5 m/S 747 mmHg 92%
08:00 +9°C° 0 mm 5 m/S 747 mmHg 87%
09:00 +10°C° 0 mm 6 m/S 747 mmHg 82%
10:00 +11°C° 0 mm 6 m/S 746 mmHg 77%
11:00 +13°C° 0 mm 6 m/S 746 mmHg 76%
12:00 +13°C° 0 mm 6 m/S 746 mmHg 76%
13:00 +14°C° 0 mm 6 m/S 745 mmHg 75%
14:00 +14°C° 0 mm 5 m/S 745 mmHg 76%
15:00 +13°C° 0 mm 5 m/S 745 mmHg 77%
16:00 +13°C° 0 mm 4 m/S 744 mmHg 77%
17:00 +13°C° 0 mm 5 m/S 744 mmHg 77%
18:00 +12°C° 0 mm 5 m/S 744 mmHg 76%
19:00 +12°C° 0 mm 5 m/S 744 mmHg 76%
20:00 +12°C° 0 mm 5 m/S 744 mmHg 76%
21:00 +10°C° 0 mm 5 m/S 744 mmHg 77%
22:00 +10°C° 0 mm 5 m/S 745 mmHg 77%
23:00 +10°C° 0 mm 5 m/S 745 mmHg 79%

27 Oktober, Dienstag

Zeit Temperatur Niederschläge Wind Luftdruck Luftfeuchtigkeit
00:00 +11°C° 0 mm 4 m/S 745 mmHg 81%
01:00 +10°C° 0 mm 4 m/S 744 mmHg 82%
02:00 +10°C° 0 mm 4 m/S 745 mmHg 84%
03:00 +10°C° 0 mm 4 m/S 745 mmHg 85%
04:00 +10°C° 0 mm 4 m/S 745 mmHg 86%
05:00 +10°C° 0 mm 4 m/S 745 mmHg 86%
06:00 +10°C° 0 mm 4 m/S 745 mmHg 86%
07:00 +10°C° 0 mm 4 m/S 746 mmHg 86%
08:00 +11°C° 0 mm 4 m/S 746 mmHg 80%
09:00 +13°C° 0 mm 4 m/S 746 mmHg 75%
10:00 +15°C° 0 mm 5 m/S 746 mmHg 69%
11:00 +15°C° 0 mm 4 m/S 746 mmHg 68%
12:00 +17°C° 0 mm 4 m/S 746 mmHg 67%
13:00 +18°C° 0 mm 4 m/S 746 mmHg 66%
14:00 +17°C° 0 mm 3 m/S 746 mmHg 69%
15:00 +16°C° 0 mm 3 m/S 746 mmHg 73%
16:00 +15°C° 0 mm 2 m/S 746 mmHg 77%
17:00 +14°C° 0 mm 2 m/S 747 mmHg 79%
18:00 +14°C° 0 mm 2 m/S 747 mmHg 81%
19:00 +13°C° 0 mm 2 m/S 747 mmHg 83%
20:00 +13°C° 0 mm 2 m/S 747 mmHg 84%
21:00 +12°C° 0 mm 2 m/S 748 mmHg 85%
22:00 +12°C° 0 mm 2 m/S 748 mmHg 87%
23:00 +12°C° 0 mm 2 m/S 748 mmHg 88%
Mehr zeigen